ACH1641 SBIL-SBCF

Flight info

Callsign ACH1641
Flight time N/A
Altitude 38000
Route DENDE DCT DORDU DCT OPTEB
Aircraft A20N/M-SDE2E3FGHIRWXY/LB1

Departure

Time 2026-04-23 01:11
Airport Bahia - Jorge Amado Airport (SBIL)

Arrival

Time N/A
Airport Tancredo Neves International Airport (SBCF)
Time Latitude Longitude Altitude Speed Heading
2026-04-23 00:54 -14.81451 -39.03180 16 ft 0 kts
2026-04-23 01:04 -14.81471 -39.03183 15 ft 4 kts 46°
2026-04-23 01:04 -14.81482 -39.03215 15 ft 0 kts 88°
2026-04-23 01:05 -14.81482 -39.03214 15 ft 0 kts 88°
2026-04-23 01:08 -14.81481 -39.03205 15 ft 5 kts 88°
2026-04-23 01:08 -14.81479 -39.03118 14 ft 18 kts 88°
2026-04-23 01:09 -14.81547 -39.03079 13 ft 14 kts 174°
2026-04-23 01:09 -14.81583 -39.02992 14 ft 17 kts 85°
2026-04-23 01:09 -14.81577 -39.02856 14 ft 20 kts 88°
2026-04-23 01:09 -14.81572 -39.02707 16 ft 21 kts 89°
2026-04-23 01:10 -14.81602 -39.02608 18 ft 9 kts 65°
2026-04-23 01:10 -14.81574 -39.02625 18 ft 0 kts 267°
2026-04-23 01:10 -14.81575 -39.02639 18 ft 4 kts 267°
2026-04-23 01:10 -14.81578 -39.02688 17 ft 13 kts 267°
2026-04-23 01:11 -14.81591 -39.02952 14 ft 75 kts 268°
2026-04-23 01:11 -14.81610 -39.03783 32 ft 149 kts 267°
2026-04-23 01:11 -14.81667 -39.04845 742 ft 148 kts 262°
2026-04-23 01:11 -14.81744 -39.05940 1457 ft 155 kts 267°
2026-04-23 01:12 -14.81923 -39.07050 1723 ft 172 kts 238°
2026-04-23 01:12 -14.82806 -39.07990 1905 ft 194 kts 221°
2026-04-23 01:12 -14.83849 -39.08966 2251 ft 211 kts 221°
2026-04-23 01:12 -14.84985 -39.10040 2618 ft 231 kts 220°
2026-04-23 01:13 -14.86204 -39.11198 3149 ft 249 kts 219°
2026-04-23 01:13 -14.87506 -39.12436 3784 ft 262 kts 219°
2026-04-23 01:13 -14.88860 -39.13732 4656 ft 267 kts 219°
2026-04-23 01:13 -14.90236 -39.15052 5518 ft 272 kts 219°
2026-04-23 01:14 -14.91632 -39.16397 6361 ft 276 kts 220°
2026-04-23 01:14 -14.93052 -39.17768 7189 ft 281 kts 220°
2026-04-23 01:14 -14.94497 -39.19163 7984 ft 285 kts 220°
2026-04-23 01:14 -14.95957 -39.20575 8751 ft 289 kts 220°
2026-04-23 01:15 -14.97424 -39.21987 9456 ft 294 kts 220°
2026-04-23 01:15 -14.98935 -39.23438 10163 ft 298 kts 221°
2026-04-23 01:15 -15.00510 -39.24953 10426 ft 320 kts 221°
2026-04-23 01:15 -15.02200 -39.26579 10671 ft 339 kts 222°
2026-04-23 01:16 -15.03949 -39.28269 11233 ft 346 kts 222°
2026-04-23 01:16 -15.05719 -39.29983 11863 ft 350 kts 222°
2026-04-23 01:16 -15.07489 -39.31696 12504 ft 354 kts 223°
2026-04-23 01:16 -15.09298 -39.33442 13144 ft 357 kts 223°
2026-04-23 01:17 -15.11129 -39.35205 13771 ft 361 kts 223°
2026-04-23 01:17 -15.12974 -39.36982 14390 ft 364 kts 223°
2026-04-23 01:17 -15.14833 -39.38774 14991 ft 367 kts 223°
2026-04-23 01:17 -15.16713 -39.40582 15576 ft 370 kts 223°
2026-04-23 01:18 -15.18606 -39.42407 16151 ft 372 kts 223°
2026-04-23 01:18 -15.20509 -39.44245 16706 ft 375 kts 224°
2026-04-23 01:18 -15.22400 -39.46074 17248 ft 378 kts 224°
2026-04-23 01:18 -15.24333 -39.47942 17780 ft 381 kts 224°
2026-04-23 01:19 -15.26281 -39.49827 18293 ft 384 kts 224°
2026-04-23 01:19 -15.28244 -39.51727 18802 ft 387 kts 224°
2026-04-23 01:19 -15.30180 -39.53686 19295 ft 390 kts 226°
2026-04-23 01:19 -15.32065 -39.55732 19783 ft 394 kts 227°
2026-04-23 01:20 -15.33922 -39.57832 20257 ft 397 kts 229°
2026-04-23 01:20 -15.35755 -39.59944 20729 ft 400 kts 229°
2026-04-23 01:20 -15.37623 -39.62097 21196 ft 404 kts 229°
2026-04-23 01:20 -15.39520 -39.64266 21655 ft 407 kts 228°
2026-04-23 01:21 -15.41443 -39.66440 22096 ft 410 kts 228°
2026-04-23 01:21 -15.43390 -39.68621 22534 ft 413 kts 227°
2026-04-23 01:21 -15.45356 -39.70812 22968 ft 416 kts 227°
2026-04-23 01:21 -15.47340 -39.73023 23392 ft 419 kts 227°
2026-04-23 01:22 -15.49336 -39.75251 23781 ft 422 kts 227°
2026-04-23 01:22 -15.51337 -39.77492 24172 ft 425 kts 227°
2026-04-23 01:22 -15.53352 -39.79753 24552 ft 428 kts 227°
2026-04-23 01:22 -15.55345 -39.81990 24962 ft 429 kts 227°
2026-04-23 01:23 -15.57381 -39.84278 25369 ft 430 kts 227°
2026-04-23 01:23 -15.59418 -39.86572 25726 ft 432 kts 227°
2026-04-23 01:23 -15.60081 -39.87319 25843 ft 433 kts 227°
2026-04-23 01:24 -15.65103 -39.92964 26748 ft 436 kts 226°
2026-04-23 01:24 -15.67176 -39.95285 27155 ft 436 kts 226°
2026-04-23 01:24 -15.69234 -39.97590 27564 ft 435 kts 226°
2026-04-23 01:24 -15.71287 -39.99897 27932 ft 435 kts 226°
2026-04-23 01:25 -15.73340 -40.02210 28294 ft 436 kts 226°
2026-04-23 01:25 -15.75398 -40.04528 28651 ft 437 kts 226°
2026-04-23 01:25 -15.77434 -40.06825 29004 ft 438 kts 226°
2026-04-23 01:25 -15.79501 -40.09157 29357 ft 439 kts 226°
2026-04-23 01:26 -15.81567 -40.11490 29706 ft 440 kts 226°
2026-04-23 01:26 -15.83645 -40.13840 30055 ft 441 kts 225°
2026-04-23 01:26 -15.85720 -40.16184 30386 ft 442 kts 225°
2026-04-23 01:26 -15.87785 -40.18509 30685 ft 443 kts 225°
2026-04-23 01:27 -15.89882 -40.20869 30972 ft 445 kts 225°
2026-04-23 01:27 -15.91987 -40.23235 31350 ft 445 kts 225°
2026-04-23 01:27 -15.94087 -40.25597 31751 ft 444 kts 225°
2026-04-23 01:27 -15.96177 -40.27954 32138 ft 443 kts 224°
2026-04-23 01:28 -15.98273 -40.30322 32523 ft 443 kts 224°
2026-04-23 01:28 -16.00333 -40.32654 32908 ft 442 kts 224°
2026-04-23 01:28 -16.02412 -40.35010 33285 ft 442 kts 224°
2026-04-23 01:28 -16.04495 -40.37365 33671 ft 441 kts 224°
2026-04-23 01:29 -16.06573 -40.39713 34067 ft 440 kts 223°
2026-04-23 01:29 -16.08644 -40.42054 34441 ft 440 kts 223°
2026-04-23 01:29 -16.10711 -40.44399 34801 ft 439 kts 223°
2026-04-23 01:29 -16.12776 -40.46737 35157 ft 438 kts 223°
2026-04-23 01:30 -16.14837 -40.49073 35490 ft 438 kts 223°
2026-04-23 01:30 -16.16896 -40.51408 35811 ft 437 kts 223°
2026-04-23 01:30 -16.18928 -40.53712 36120 ft 437 kts 223°
2026-04-23 01:30 -16.20981 -40.56039 36428 ft 436 kts 223°
2026-04-23 01:31 -16.23033 -40.58363 36713 ft 436 kts 223°
2026-04-23 01:31 -16.25089 -40.60693 37024 ft 435 kts 223°
2026-04-23 01:31 -16.27133 -40.63007 37352 ft 433 kts 223°
2026-04-23 01:31 -16.29165 -40.65315 37681 ft 431 kts 223°
2026-04-23 01:32 -16.31164 -40.67587 37994 ft 429 kts 223°
2026-04-23 01:32 -16.33187 -40.69889 38100 ft 430 kts 223°
2026-04-23 01:32 -16.37227 -40.74478 38109 ft 431 kts 223°
2026-04-23 01:33 -16.41287 -40.79092 38109 ft 431 kts 223°
2026-04-23 01:33 -16.45341 -40.83708 38109 ft 431 kts 223°
2026-04-23 01:34 -16.49375 -40.88297 38119 ft 431 kts 223°
2026-04-23 01:34 -16.53430 -40.92909 38122 ft 431 kts 223°
2026-04-23 01:35 -16.57448 -40.97502 38129 ft 431 kts 223°
2026-04-23 01:35 -16.61494 -41.02133 38131 ft 431 kts 223°
2026-04-23 01:36 -16.65529 -41.06740 38141 ft 431 kts 223°
2026-04-23 01:36 -16.69580 -41.11372 38133 ft 431 kts 223°
2026-04-23 01:37 -16.73626 -41.15999 38134 ft 431 kts 223°
2026-04-23 01:37 -16.77673 -41.20619 38134 ft 431 kts 223°
2026-04-23 01:38 -16.81693 -41.25216 38146 ft 431 kts 223°
2026-04-23 01:38 -16.85739 -41.29860 38139 ft 431 kts 223°
2026-04-23 01:39 -16.89789 -41.34508 38137 ft 431 kts 223°
2026-04-23 01:39 -16.93809 -41.39113 38141 ft 431 kts 223°
2026-04-23 01:40 -16.97859 -41.43756 38147 ft 431 kts 223°
2026-04-23 01:40 -17.01871 -41.48369 38136 ft 430 kts 224°
2026-04-23 01:41 -17.05901 -41.53006 38141 ft 430 kts 223°
2026-04-23 01:41 -17.09929 -41.57636 38141 ft 430 kts 224°
2026-04-23 01:42 -17.13932 -41.62249 38135 ft 429 kts 224°
2026-04-23 01:42 -17.15945 -41.64569 38136 ft 429 kts 224°